Overview Statistics Trail Chart Weather Telemetry Raw packets
 

This is the latest recevied weather packets stored in our database for station/object W5DNT. If no packets are shown the sender has not sent any weather packets the latest 10 day(s).

<< 29 30 31 32 33 34 35 >>
Time Temp. Humidity Pressure Rain* Wind** Luminosity Snow
1787954443 37.78° C 32% 1012.6 hPa 0 mm - - -
1787953541 37.78° C 35% 1012.7 hPa 0 mm - - -
1787952639 37.78° C 35% 1012.9 hPa 0 mm - - -
1787951748 37.78° C 33% 1013.2 hPa 0 mm - - -
1787950841 37.78° C 37% 1013.3 hPa 0 mm - - -
1787949939 37.22° C 39% 1013.4 hPa 0 mm - - -
1787949026 36.67° C 40% 1014 hPa 0 mm - - -
1787948132 35.56° C 43% 1014.5 hPa 0 mm - - -
1787947223 35° C 43% 1014.7 hPa 0 mm - - -
1787946324 35.56° C 44% 1014.9 hPa 0 mm - - -
1787945422 35.56° C 46% 1015.1 hPa 0 mm - - -
1787944521 35.56° C 47% 1015.1 hPa 0 mm - - -
1787943621 36.11° C 49% 1015.3 hPa 0 mm - - -
1787942717 35.56° C 46% 1015.5 hPa 0 mm - - -
1787941813 35.56° C 51% 1015.6 hPa 0 mm - - -
1787940914 35° C 54% 1015.7 hPa 0 mm - - -
1787940010 35° C 50% 1016.1 hPa 0 mm - - -
1787939106 34.44° C 52% 1016.4 hPa 0 mm - - -
1787938203 33.89° C 53% 1016.3 hPa 0 mm - - -
1787937361 33.89° C 53% 1016.4 hPa 0 mm - - -
1787936459 33.89° C 55% 1016.6 hPa 0 mm - - -
1787935559 33.33° C 56% 1016.6 hPa 0 mm - - -
1787934652 32.78° C 60% 1016.6 hPa 0 mm - - -
1787933750 32.22° C 59% 1016.8 hPa 0 mm - - -
1787932847 31.67° C 61% 1016.7 hPa 0 mm - - -

* Rain latest hour (hover to see other rain measurements)
** Current wind speed in m/s (hover to see current wind gust speed)